Location: Lawrence
(38.9720°N, 95.2350°W)
Time: 09:23:33
(UTC-06:00)

ISS - Visible Passes

Search period start: 21 February 2018 00:00
Search period end: 03 March 2018 00:00
Orbit: 403 x 407 km, 51.6° (Epoch: 22 February)

Date Brightness Start Highest point End Pass type
(mag) Time Alt. Az. Time Alt. Az. Time Alt. Az.
23 Feb -0.8 06:32:15 10° SSE 06:34:15 15° SE 06:36:16 10° E visible
25 Feb -2.3 06:22:57 10° SSW 06:26:01 38° SE 06:29:06 10° ENE visible
26 Feb -1.3 05:31:30 10° S 05:33:55 19° SE 05:36:22 10° E visible
27 Feb -3.9 06:14:38 10° SW 06:17:54 78° NW 06:21:10 10° NE visible
28 Feb -3.1 05:24:32 33° SSW 05:25:39 50° SE 05:28:50 10° ENE visible
01 Mar -1.1 04:34:48 19° E 04:34:48 19° E 04:36:14 10° ENE visible
01 Mar -2.9 06:07:29 14° W 06:09:52 33° NNW 06:12:53 10° NE visible
02 Mar -3.7 05:17:35 61° NNW 05:17:35 61° NNW 05:20:45 10° NE visible
